Location: Heidgraben
(53.7081°N, 9.6576°E)
Time: 00:16:52
(UTC+00:00)

Cosmos 2333 Rocket - Pass Details

Date: 27 October 2020
Orbit: 841 x 861 km, 70.8° (Epoch: 28 November)

Event Time Altitude Azimuth Distance (km) Brightness Sun altitude
Exits shadow 00:56:56 14° 11° (NNE) 2,223 4.8 -43.6°
Drops below altitude 10° 00:58:05 10° 21° (NNE) 2,486 5.2 -43.5°
Sets 01:01:16 0° 39° (NE) 3,420 6.2 -43.2°
